Location: Unspecified
(0.0000°N, 0.0000°E)
Time: 08:57:49
(UTC+00:00)

Explorer 11/Cluster Stage 4 - Pass Details

Date: 23 July 2020
Orbit: 467 x 1259 km, 28.8° (Epoch: 03 August)

Event Time Altitude Azimuth Distance (km) Brightness Sun altitude
Rises 16:31:20 0° 267° (W) 3,701 11.1 22.3°
Reaches altitude 10° 16:34:31 10° 252° (WSW) 2,882 10.4 21.6°
Maximum altitude 16:39:59 23° 203° (SSW) 2,262 9.1 20.3°
Drops below altitude 10° 16:45:58 10° 155° (SSE) 3,190 9.3 18.9°
Sets 16:49:44 0° 141° (SE) 4,196 9.8 18.0°
